Time,TemperatureF,DewpointF,PressureIn,WindDirection,WindDirectionDegrees,WindSpeedMPH,WindSpeedGustMPH,Humidity,HourlyPrecipIn,Conditions,Clouds,dailyrainin,SoftwareType,DateUTC
2013-03-09 00:00:00,58.7,39.1,29.96,SE,143,12.0,12.0,48,0.00,,---,0.00,VWS V14.00,2013-03-09 06:00:00,
2013-03-09 00:01:00,58.7,39.1,29.96,SE,140,0.0,12.0,48,0.00,,---,0.00,VWS V14.00,2013-03-09 06:01:00,
2013-03-09 00:02:00,58.5,38.9,29.96,SSE,148,1.0,11.0,48,0.00,,---,0.00,VWS V14.00,2013-03-09 06:02:00,
2013-03-09 00:05:00,58.9,39.3,29.96,SE,131,0.0,10.0,48,0.00,,---,0.00,VWS V14.00,2013-03-09 06:05:00,
2013-03-09 00:07:00,58.9,39.3,29.96,SSE,168,0.0,11.0,48,0.00,,---,0.00,VWS V14.00,2013-03-09 06:07:00,
2013-03-09 00:09:00,59.0,39.4,29.96,SE,125,0.0,4.0,48,0.00,,---,0.00,VWS V14.00,2013-03-09 06:09:00,
2013-03-09 00:11:00,59.0,39.4,29.96,SE,126,0.0,11.0,48,0.00,,---,0.00,VWS V14.00,2013-03-09 06:11:00,
2013-03-09 00:12:00,58.7,39.1,29.96,SSE,160,0.0,10.0,48,0.00,,---,0.00,VWS V14.00,2013-03-09 06:12:00,
2013-03-09 00:13:00,59.0,38.8,29.96,SE,129,1.0,12.0,47,0.00,,---,0.00,VWS V14.00,2013-03-09 06:13:00,
2013-03-09 00:14:00,59.0,38.8,29.96,ESE,113,7.0,7.0,47,0.00,,---,0.00,VWS V14.00,2013-03-09 06:14:00,
2013-03-09 00:15:00,59.1,38.9,29.96,SE,142,0.0,8.0,47,0.00,,---,0.00,VWS V14.00,2013-03-09 06:15:00,
2013-03-09 00:16:00,59.1,38.9,29.96,SSE,148,0.0,4.0,47,0.00,,---,0.00,VWS V14.00,2013-03-09 06:16:00,
2013-03-09 00:17:00,59.1,38.9,29.96,SE,124,1.0,5.0,47,0.00,,---,0.00,VWS V14.00,2013-03-09 06:17:00,
2013-03-09 00:18:00,58.9,39.3,29.96,SSE,165,0.0,2.0,48,0.00,,---,0.00,VWS V14.00,2013-03-09 06:18:00,
2013-03-09 00:20:00,59.1,38.4,29.96,SE,142,7.0,13.0,46,0.00,,---,0.00,VWS V14.00,2013-03-09 06:20:00,
2013-03-09 00:21:00,59.2,38.5,29.96,SE,133,0.0,11.0,46,0.00,,---,0.00,VWS V14.00,2013-03-09 06:21:00,
2013-03-09 00:23:00,59.2,38.5,29.96,SE,133,0.0,4.0,46,0.00,,---,0.00,VWS V14.00,2013-03-09 06:23:00,
2013-03-09 00:24:00,59.2,38.5,29.96,SE,137,2.0,4.0,46,0.00,,---,0.00,VWS V14.00,2013-03-09 06:24:00,
2013-03-09 00:25:00,59.1,38.4,29.96,SE,138,3.0,13.0,46,0.00,,---,0.00,VWS V14.00,2013-03-09 06:25:00,
2013-03-09 00:27:00,59.1,38.4,29.96,SE,136,0.0,3.0,46,0.00,,---,0.00,VWS V14.00,2013-03-09 06:27:00,
2013-03-09 00:29:00,59.1,38.9,29.96,SE,127,12.0,17.0,47,0.00,,---,0.00,VWS V14.00,2013-03-09 06:29:00,
2013-03-09 00:30:00,59.1,38.4,29.96,SSE,161,0.0,5.0,46,0.00,,---,0.00,VWS V14.00,2013-03-09 06:30:00,
2013-03-09 00:31:00,59.1,38.4,29.96,SSE,150,0.0,6.0,46,0.00,,---,0.00,VWS V14.00,2013-03-09 06:31:00,
2013-03-09 00:36:00,59.1,38.4,29.96,SE,145,0.0,5.0,46,0.00,,---,0.00,VWS V14.00,2013-03-09 06:36:00,
2013-03-09 00:38:00,59.1,37.8,29.96,SE,137,6.0,14.0,45,0.00,,---,0.00,VWS V14.00,2013-03-09 06:38:00,
2013-03-09 00:41:00,59.1,37.8,29.96,SE,136,0.0,14.0,45,0.00,,---,0.00,VWS V14.00,2013-03-09 06:41:00,
2013-03-09 00:42:00,59.1,38.4,29.96,SSE,150,0.0,0.0,46,0.00,,---,0.00,VWS V14.00,2013-03-09 06:42:00,
2013-03-09 00:45:00,59.1,37.8,29.94,SE,136,0.0,16.0,45,0.00,,---,0.00,VWS V14.00,2013-03-09 06:45:00,
2013-03-09 00:47:00,59.1,37.8,29.96,SE,129,7.0,7.0,45,0.00,,---,0.00,VWS V14.00,2013-03-09 06:47:00,
2013-03-09 00:53:00,59.1,37.8,29.96,SE,132,3.0,6.0,45,0.00,,---,0.00,VWS V14.00,2013-03-09 06:53:00,
2013-03-09 00:58:00,59.1,37.8,29.94,SSE,165,0.0,13.0,45,0.00,,---,0.00,VWS V14.00,2013-03-09 06:58:00,
2013-03-09 01:03:00,59.1,37.2,29.94,ESE,122,4.0,15.0,44,0.00,,---,0.00,VWS V14.00,2013-03-09 07:03:00,
2013-03-09 01:08:00,59.1,37.2,29.94,ESE,114,7.0,20.0,44,0.00,,---,0.00,VWS V14.00,2013-03-09 07:08:00,
2013-03-09 01:13:00,59.1,37.2,29.93,SE,131,8.0,11.0,44,0.00,,---,0.00,VWS V14.00,2013-03-09 07:13:00,
2013-03-09 01:19:00,59.0,37.1,29.93,ESE,119,1.0,12.0,44,0.00,,---,0.00,VWS V14.00,2013-03-09 07:19:00,
2013-03-09 01:24:00,58.9,37.6,29.93,ESE,113,9.0,12.0,45,0.00,,---,0.00,VWS V14.00,2013-03-09 07:24:00,
2013-03-09 01:29:00,58.9,37.6,29.93,ESE,122,4.0,15.0,45,0.00,,---,0.00,VWS V14.00,2013-03-09 07:29:00,
2013-03-09 01:34:00,58.9,37.6,29.93,SSE,150,2.0,3.0,45,0.00,,---,0.00,VWS V14.00,2013-03-09 07:34:00,
2013-03-09 01:40:00,58.8,37.5,29.94,SSE,153,3.0,11.0,45,0.00,,---,0.00,VWS V14.00,2013-03-09 07:40:00,
2013-03-09 01:45:00,58.7,37.4,29.94,SSE,154,1.0,5.0,45,0.00,,---,0.00,VWS V14.00,2013-03-09 07:45:00,
2013-03-09 01:50:00,58.6,37.9,29.94,SE,131,2.0,12.0,46,0.00,,---,0.00,VWS V14.00,2013-03-09 07:50:00,
2013-03-09 01:56:00,58.5,37.8,29.94,SE,138,3.0,7.0,46,0.00,,---,0.00,VWS V14.00,2013-03-09 07:56:00,
2013-03-09 02:01:00,58.5,37.8,29.94,SE,132,0.0,4.0,46,0.00,,---,0.00,VWS V14.00,2013-03-09 08:01:00,
2013-03-09 02:06:00,58.4,38.3,29.94,SSE,148,0.0,0.0,47,0.00,,---,0.00,VWS V14.00,2013-03-09 08:06:00,
2013-03-09 02:11:00,58.4,38.3,29.93,SE,131,11.0,11.0,47,0.00,,---,0.00,VWS V14.00,2013-03-09 08:11:00,
2013-03-09 02:16:00,58.3,38.2,29.93,SE,124,4.0,8.0,47,0.00,,---,0.00,VWS V14.00,2013-03-09 08:16:00,
2013-03-09 02:22:00,58.2,38.1,29.93,SE,133,0.0,3.0,47,0.00,,---,0.00,VWS V14.00,2013-03-09 08:22:00,
2013-03-09 02:27:00,58.1,38.0,29.92,SE,134,1.0,4.0,47,0.00,,---,0.00,VWS V14.00,2013-03-09 08:27:00,
2013-03-09 02:33:00,57.9,38.3,29.92,SE,138,1.0,6.0,48,0.00,,---,0.00,VWS V14.00,2013-03-09 08:33:00,
2013-03-09 02:38:00,57.8,38.3,29.92,SSE,153,0.0,6.0,48,0.00,,---,0.00,VWS V14.00,2013-03-09 08:38:00,
2013-03-09 02:43:00,57.7,38.2,29.92,SE,138,0.0,0.0,48,0.00,,---,0.00,VWS V14.00,2013-03-09 08:43:00,
2013-03-09 02:49:00,57.6,38.6,29.92,SE,129,3.0,6.0,49,0.00,,---,0.00,VWS V14.00,2013-03-09 08:49:00,
2013-03-09 02:54:00,57.5,38.5,29.92,SE,130,1.0,7.0,49,0.00,,---,0.00,VWS V14.00,2013-03-09 08:54:00,
2013-03-09 02:59:00,57.4,38.4,29.91,SE,131,0.0,0.0,49,0.00,,---,0.00,VWS V14.00,2013-03-09 08:59:00,
2013-03-09 03:04:00,57.3,38.3,29.91,SE,141,2.0,9.0,49,0.00,,---,0.00,VWS V14.00,2013-03-09 09:04:00,
2013-03-09 03:09:00,57.3,38.8,29.91,SE,131,0.0,0.0,50,0.00,,---,0.00,VWS V14.00,2013-03-09 09:09:00,
2013-03-09 03:14:00,57.2,38.8,29.91,SE,134,3.0,3.0,50,0.00,,---,0.00,VWS V14.00,2013-03-09 09:14:00,
2013-03-09 03:19:00,57.1,38.7,29.91,SE,134,0.0,3.0,50,0.00,,---,0.00,VWS V14.00,2013-03-09 09:19:00,
2013-03-09 03:24:00,56.9,39.0,29.91,SE,130,0.0,5.0,51,0.00,,---,0.00,VWS V14.00,2013-03-09 09:24:00,
2013-03-09 03:29:00,56.8,38.9,29.90,SE,129,0.0,1.0,51,0.00,,---,0.00,VWS V14.00,2013-03-09 09:29:00,
2013-03-09 03:34:00,56.7,38.8,29.90,SE,129,0.0,0.0,51,0.00,,---,0.00,VWS V14.00,2013-03-09 09:34:00,
2013-03-09 03:39:00,56.6,39.2,29.90,SE,129,0.0,0.0,52,0.00,,---,0.00,VWS V14.00,2013-03-09 09:39:00,
2013-03-09 03:45:00,56.4,39.0,29.90,SE,141,0.0,2.0,52,0.00,,---,0.00,VWS V14.00,2013-03-09 09:45:00,
2013-03-09 03:51:00,56.3,39.4,29.90,SE,136,0.0,6.0,53,0.00,,---,0.00,VWS V14.00,2013-03-09 09:51:00,
2013-03-09 03:56:00,56.2,39.3,29.90,SE,131,0.0,2.0,53,0.00,,---,0.00,VWS V14.00,2013-03-09 09:56:00,
2013-03-09 04:02:00,56.1,39.2,29.90,SE,127,3.0,5.0,53,0.00,,---,0.00,VWS V14.00,2013-03-09 10:02:00,
2013-03-09 04:07:00,56.0,39.1,29.90,SE,127,0.0,3.0,53,0.00,,---,0.00,VWS V14.00,2013-03-09 10:07:00,
2013-03-09 04:13:00,56.0,39.6,29.90,SE,127,0.0,0.0,54,0.00,,---,0.00,VWS V14.00,2013-03-09 10:13:00,
2013-03-09 04:19:00,55.9,39.5,29.90,SE,133,0.0,3.0,54,0.00,,---,0.00,VWS V14.00,2013-03-09 10:19:00,
2013-03-09 04:24:00,55.9,39.5,29.90,SE,130,0.0,0.0,54,0.00,,---,0.00,VWS V14.00,2013-03-09 10:24:00,
2013-03-09 04:30:00,55.8,39.4,29.90,SE,140,0.0,3.0,54,0.00,,---,0.00,VWS V14.00,2013-03-09 10:30:00,
2013-03-09 04:35:00,55.7,39.8,29.90,SSE,148,0.0,7.0,55,0.00,,---,0.00,VWS V14.00,2013-03-09 10:35:00,
2013-03-09 04:40:00,55.5,39.6,29.88,SSE,148,3.0,5.0,55,0.00,,---,0.00,VWS V14.00,2013-03-09 10:40:00,
2013-03-09 04:45:00,55.5,39.6,29.88,SE,146,4.0,4.0,55,0.00,,---,0.00,VWS V14.00,2013-03-09 10:45:00,
2013-03-09 04:50:00,55.4,39.5,29.88,SE,136,0.0,6.0,55,0.00,,---,0.00,VWS V14.00,2013-03-09 10:50:00,
2013-03-09 04:56:00,55.3,39.9,29.88,SE,141,0.0,6.0,56,0.00,,---,0.00,VWS V14.00,2013-03-09 10:56:00,
2013-03-09 05:01:00,55.2,39.8,29.88,SE,134,4.0,4.0,56,0.00,,---,0.00,VWS V14.00,2013-03-09 11:01:00,
2013-03-09 05:06:00,55.2,39.8,29.88,SE,136,0.0,2.0,56,0.00,,---,0.00,VWS V14.00,2013-03-09 11:06:00,
2013-03-09 05:12:00,55.1,39.7,29.88,SE,131,0.0,6.0,56,0.00,,---,0.00,VWS V14.00,2013-03-09 11:12:00,
2013-03-09 05:18:00,55.1,39.7,29.88,SE,134,0.0,5.0,56,0.00,,---,0.00,VWS V14.00,2013-03-09 11:18:00,
2013-03-09 05:23:00,55.1,39.7,29.88,SE,134,2.0,5.0,56,0.00,,---,0.00,VWS V14.00,2013-03-09 11:23:00,
2013-03-09 05:28:00,55.0,39.6,29.88,SSE,148,4.0,5.0,56,0.00,,---,0.00,VWS V14.00,2013-03-09 11:28:00,
2013-03-09 05:33:00,54.9,40.0,29.88,SE,141,3.0,9.0,57,0.00,,---,0.00,VWS V14.00,2013-03-09 11:33:00,
2013-03-09 05:38:00,54.9,40.0,29.88,SE,127,0.0,5.0,57,0.00,,---,0.00,VWS V14.00,2013-03-09 11:38:00,
2013-03-09 05:43:00,54.8,39.9,29.88,SE,142,11.0,12.0,57,0.00,,---,0.00,VWS V14.00,2013-03-09 11:43:00,
2013-03-09 05:49:00,54.8,39.9,29.88,SE,134,0.0,5.0,57,0.00,,---,0.00,VWS V14.00,2013-03-09 11:49:00,
2013-03-09 05:54:00,54.7,40.2,29.88,SE,133,5.0,11.0,58,0.00,,---,0.00,VWS V14.00,2013-03-09 11:54:00,
2013-03-09 05:59:00,54.7,40.2,29.88,SE,139,0.0,0.0,58,0.00,,---,0.00,VWS V14.00,2013-03-09 11:59:00,
2013-03-09 06:04:00,54.6,40.1,29.88,ESE,118,0.0,0.0,58,0.00,,---,0.00,VWS V14.00,2013-03-09 12:04:00,
2013-03-09 06:09:00,54.5,40.0,29.88,SE,141,2.0,10.0,58,0.00,,---,0.00,VWS V14.00,2013-03-09 12:09:00,
2013-03-09 06:15:00,54.5,40.0,29.88,SE,131,0.0,6.0,58,0.00,,---,0.00,VWS V14.00,2013-03-09 12:15:00,
2013-03-09 06:21:00,54.4,40.0,29.88,SE,132,0.0,4.0,58,0.00,,---,0.00,VWS V14.00,2013-03-09 12:21:00,
2013-03-09 06:26:00,54.3,40.3,29.88,SE,143,0.0,5.0,59,0.00,,---,0.00,VWS V14.00,2013-03-09 12:26:00,
2013-03-09 06:31:00,54.3,40.3,29.88,SE,127,0.0,7.0,59,0.00,,---,0.00,VWS V14.00,2013-03-09 12:31:00,
2013-03-09 06:36:00,54.2,40.2,29.88,SE,141,3.0,3.0,59,0.00,,---,0.00,VWS V14.00,2013-03-09 12:36:00,
2013-03-09 06:42:00,54.2,40.6,29.88,SE,141,0.0,1.0,60,0.00,,---,0.00,VWS V14.00,2013-03-09 12:42:00,
2013-03-09 06:48:00,54.1,40.5,29.88,SE,139,0.0,0.0,60,0.00,,---,0.00,VWS V14.00,2013-03-09 12:48:00,
2013-03-09 06:53:00,54.1,40.5,29.88,ESE,122,0.0,5.0,60,0.00,,---,0.00,VWS V14.00,2013-03-09 12:53:00,
2013-03-09 06:58:00,54.0,40.4,29.88,SSE,153,0.0,10.0,60,0.00,,---,0.00,VWS V14.00,2013-03-09 12:58:00,
2013-03-09 07:03:00,54.0,40.9,29.88,SE,129,0.0,5.0,61,0.00,,---,0.00,VWS V14.00,2013-03-09 13:03:00,
2013-03-09 07:08:00,54.1,41.0,29.88,SSE,149,0.0,11.0,61,0.00,,---,0.00,VWS V14.00,2013-03-09 13:08:00,
2013-03-09 07:13:00,54.2,41.1,29.88,ESE,117,9.0,9.0,61,0.00,,---,0.00,VWS V14.00,2013-03-09 13:13:00,
2013-03-09 07:19:00,54.1,41.0,29.88,South,186,0.0,5.0,61,0.00,,---,0.00,VWS V14.00,2013-03-09 13:19:00,
2013-03-09 07:25:00,54.1,41.4,29.87,SSE,158,0.0,10.0,62,0.00,,---,0.00,VWS V14.00,2013-03-09 13:25:00,
2013-03-09 07:30:00,54.1,41.4,29.87,SE,132,5.0,5.0,62,0.00,,---,0.00,VWS V14.00,2013-03-09 13:30:00,
2013-03-09 07:35:00,54.1,41.4,29.87,SE,140,0.0,9.0,62,0.00,,---,0.00,VWS V14.00,2013-03-09 13:35:00,
2013-03-09 07:40:00,54.2,41.5,29.88,SE,137,6.0,11.0,62,0.00,,---,0.00,VWS V14.00,2013-03-09 13:40:00,
2013-03-09 07:46:00,54.1,41.8,29.88,SE,135,0.0,6.0,63,0.00,,---,0.00,VWS V14.00,2013-03-09 13:46:00,
2013-03-09 07:52:00,54.1,41.8,29.88,SE,135,4.0,7.0,63,0.00,,---,0.00,VWS V14.00,2013-03-09 13:52:00,
2013-03-09 07:57:00,54.1,42.2,29.87,SE,138,6.0,12.0,64,0.00,,---,0.00,VWS V14.00,2013-03-09 13:57:00,
2013-03-09 08:02:00,54.2,42.3,29.87,SE,137,12.0,12.0,64,0.00,,---,0.00,VWS V14.00,2013-03-09 14:02:00,
2013-03-09 08:08:00,54.2,42.7,29.87,SE,142,4.0,10.0,65,0.00,,---,0.00,VWS V14.00,2013-03-09 14:08:00,
2013-03-09 08:13:00,54.3,42.8,29.87,SSE,165,0.0,0.0,65,0.00,,---,0.00,VWS V14.00,2013-03-09 14:13:00,
2013-03-09 08:18:00,54.3,42.8,29.87,SE,131,11.0,11.0,65,0.00,,---,0.00,VWS V14.00,2013-03-09 14:18:00,
2013-03-09 08:23:00,54.4,43.3,29.87,SE,139,5.0,10.0,66,0.00,,---,0.00,VWS V14.00,2013-03-09 14:23:00,
2013-03-09 08:28:00,54.6,43.5,29.86,ESE,123,0.0,6.0,66,0.00,,---,0.00,VWS V14.00,2013-03-09 14:28:00,
2013-03-09 08:34:00,54.8,44.1,29.86,SE,129,5.0,11.0,67,0.00,,---,0.00,VWS V14.00,2013-03-09 14:34:00,
2013-03-09 08:39:00,54.8,44.1,29.86,ESE,123,4.0,11.0,67,0.00,,---,0.00,VWS V14.00,2013-03-09 14:39:00,
2013-03-09 08:45:00,55.1,44.7,29.86,SE,129,2.0,14.0,68,0.00,,---,0.00,VWS V14.00,2013-03-09 14:45:00,
2013-03-09 08:51:00,55.4,45.0,29.86,SE,126,3.0,9.0,68,0.00,,---,0.00,VWS V14.00,2013-03-09 14:51:00,
2013-03-09 08:57:00,55.8,46.2,29.84,ESE,120,5.0,12.0,70,0.00,,---,0.00,VWS V14.00,2013-03-09 14:57:00,
2013-03-09 09:02:00,56.1,46.5,29.84,SE,143,6.0,16.0,70,0.00,,---,0.00,VWS V14.00,2013-03-09 15:02:00,
2013-03-09 09:07:00,56.6,47.3,29.84,SE,142,4.0,15.0,71,0.00,,---,0.00,VWS V14.00,2013-03-09 15:07:00,
2013-03-09 09:12:00,57.0,47.7,29.83,SSE,149,11.0,17.0,71,0.00,,---,0.00,VWS V14.00,2013-03-09 15:12:00,
2013-03-09 09:18:00,57.2,48.3,29.83,SE,139,0.0,13.0,72,0.00,,---,0.00,VWS V14.00,2013-03-09 15:18:00,
2013-03-09 09:24:00,57.0,48.4,29.83,South,188,1.0,15.0,73,0.00,,---,0.00,VWS V14.00,2013-03-09 15:24:00,
2013-03-09 09:29:00,57.0,48.4,29.83,SE,144,5.0,13.0,73,0.00,,---,0.00,VWS V14.00,2013-03-09 15:29:00,
2013-03-09 09:34:00,57.0,48.8,29.83,SE,139,0.0,14.0,74,0.00,,---,0.00,VWS V14.00,2013-03-09 15:34:00,
2013-03-09 09:40:00,57.3,49.5,29.82,SE,127,0.0,15.0,75,0.00,,---,0.00,VWS V14.00,2013-03-09 15:40:00,
2013-03-09 09:46:00,57.8,50.3,29.82,ESE,122,6.0,16.0,76,0.00,,---,0.00,VWS V14.00,2013-03-09 15:46:00,
2013-03-09 09:51:00,58.0,50.5,29.82,ESE,113,9.0,12.0,76,0.00,,---,0.00,VWS V14.00,2013-03-09 15:51:00,
2013-03-09 09:57:00,58.4,50.9,29.82,SE,132,15.0,15.0,76,0.00,,---,0.00,VWS V14.00,2013-03-09 15:57:00,
2013-03-09 10:03:00,58.7,51.5,29.82,SE,144,9.0,15.0,77,0.00,,---,0.00,VWS V14.00,2013-03-09 16:03:00,
2013-03-09 10:09:00,58.8,51.6,29.82,SE,131,2.0,13.0,77,0.00,,---,0.00,VWS V14.00,2013-03-09 16:09:00,
2013-03-09 10:14:00,58.8,52.0,29.82,SE,142,2.0,14.0,78,0.00,,---,0.00,VWS V14.00,2013-03-09 16:14:00,
2013-03-09 10:20:00,59.0,52.2,29.82,South,174,2.0,11.0,78,0.00,,---,0.00,VWS V14.00,2013-03-09 16:20:00,
2013-03-09 10:26:00,59.3,52.5,29.80,SSE,148,3.0,12.0,78,0.00,,---,0.00,VWS V14.00,2013-03-09 16:26:00,
2013-03-09 10:31:00,59.6,52.4,29.80,South,176,2.0,4.0,77,0.00,,---,0.00,VWS V14.00,2013-03-09 16:31:00,
2013-03-09 10:36:00,59.6,52.4,29.80,SE,143,9.0,19.0,77,0.00,,---,0.00,VWS V14.00,2013-03-09 16:36:00,
2013-03-09 10:41:00,59.8,52.6,29.80,SE,144,3.0,10.0,77,0.00,,---,0.00,VWS V14.00,2013-03-09 16:41:00,
2013-03-09 10:47:00,60.1,53.2,29.80,SSE,157,4.0,14.0,78,0.00,,---,0.00,VWS V14.00,2013-03-09 16:47:00,
2013-03-09 10:53:00,60.6,53.4,29.80,SE,144,21.0,23.0,77,0.00,,---,0.00,VWS V14.00,2013-03-09 16:53:00,
2013-03-09 10:58:00,60.8,53.5,29.79,ESE,113,10.0,15.0,77,0.00,,---,0.00,VWS V14.00,2013-03-09 16:58:00,
2013-03-09 11:04:00,60.9,53.7,29.79,South,181,4.0,21.0,77,0.00,,---,0.00,VWS V14.00,2013-03-09 17:04:00,
2013-03-09 11:09:00,61.1,53.8,29.79,South,184,12.0,18.0,77,0.00,,---,0.00,VWS V14.00,2013-03-09 17:09:00,
2013-03-09 11:14:00,61.3,53.7,29.79,SE,132,2.0,19.0,76,0.00,,---,0.00,VWS V14.00,2013-03-09 17:14:00,
2013-03-09 11:19:00,61.4,53.8,29.79,SE,131,4.0,19.0,76,0.00,,---,0.00,VWS V14.00,2013-03-09 17:19:00,
2013-03-09 11:24:00,61.6,54.0,29.79,SE,134,7.0,18.0,76,0.00,,---,0.00,VWS V14.00,2013-03-09 17:24:00,
2013-03-09 11:29:00,61.5,54.2,29.78,SSW,193,16.0,20.0,77,0.00,,---,0.00,VWS V14.00,2013-03-09 17:29:00,
2013-03-09 11:35:00,61.5,54.2,29.78,SE,139,8.0,16.0,77,0.00,,---,0.00,VWS V14.00,2013-03-09 17:35:00,
2013-03-09 11:40:00,61.6,54.3,29.78,SSE,156,13.0,22.0,77,0.00,,---,0.00,VWS V14.00,2013-03-09 17:40:00,
2013-03-09 11:45:00,61.6,54.3,29.78,SE,131,9.0,23.0,77,0.00,,---,0.00,VWS V14.00,2013-03-09 17:45:00,
2013-03-09 11:51:00,61.8,54.5,29.78,SSE,154,13.0,19.0,77,0.00,,---,0.00,VWS V14.00,2013-03-09 17:51:00,
2013-03-09 11:57:00,61.8,54.5,29.77,SSE,161,3.0,19.0,77,0.00,,---,0.00,VWS V14.00,2013-03-09 17:57:00,
2013-03-09 12:03:00,61.9,55.0,29.77,SSE,167,1.0,21.0,78,0.00,,---,0.00,VWS V14.00,2013-03-09 18:03:00,
2013-03-09 12:08:00,62.1,54.8,29.77,South,186,1.0,5.0,77,0.00,,---,0.00,VWS V14.00,2013-03-09 18:08:00,
2013-03-09 12:14:00,62.1,54.8,29.77,South,188,1.0,18.0,77,0.00,,---,0.00,VWS V14.00,2013-03-09 18:14:00,
2013-03-09 12:19:00,62.2,54.9,29.77,ESE,122,2.0,13.0,77,0.00,,---,0.00,VWS V14.00,2013-03-09 18:19:00,
2013-03-09 12:24:00,62.3,55.0,29.77,SE,128,15.0,15.0,77,0.00,,---,0.00,VWS V14.00,2013-03-09 18:24:00,
2013-03-09 12:30:00,62.3,55.0,29.76,SE,142,0.0,10.0,77,0.00,,---,0.00,VWS V14.00,2013-03-09 18:30:00,
2013-03-09 12:35:00,62.3,55.4,29.76,ESE,118,4.0,13.0,78,0.00,,---,0.00,VWS V14.00,2013-03-09 18:35:00,
2013-03-09 12:40:00,62.4,55.5,29.76,SE,143,26.0,26.0,78,0.00,,---,0.00,VWS V14.00,2013-03-09 18:40:00,
2013-03-09 12:46:00,62.3,55.4,29.76,SSE,149,5.0,17.0,78,0.00,,---,0.00,VWS V14.00,2013-03-09 18:46:00,
2013-03-09 12:52:00,62.0,55.1,29.76,SSE,156,2.0,17.0,78,0.00,,---,0.00,VWS V14.00,2013-03-09 18:52:00,
2013-03-09 12:57:00,62.0,55.4,29.76,SSE,149,14.0,16.0,79,0.00,,---,0.00,VWS V14.00,2013-03-09 18:57:00,
2013-03-09 13:02:00,62.0,55.4,29.76,South,180,3.0,7.0,79,0.00,,---,0.00,VWS V14.00,2013-03-09 19:02:00,
2013-03-09 13:07:00,62.1,55.2,29.76,ESE,107,17.0,24.0,78,0.00,,---,0.00,VWS V14.00,2013-03-09 19:07:00,
2013-03-09 13:13:00,62.1,55.2,29.75,ESE,111,14.0,18.0,78,0.00,,---,0.00,VWS V14.00,2013-03-09 19:13:00,
2013-03-09 13:19:00,62.1,55.5,29.75,ESE,109,7.0,17.0,79,0.00,,---,0.00,VWS V14.00,2013-03-09 19:19:00,
2013-03-09 13:24:00,62.1,55.5,29.75,South,183,3.0,19.0,79,0.00,,---,0.00,VWS V14.00,2013-03-09 19:24:00,
2013-03-09 13:29:00,62.0,55.4,29.74,SE,128,16.0,17.0,79,0.00,,---,0.00,VWS V14.00,2013-03-09 19:29:00,
2013-03-09 13:34:00,62.0,55.4,29.74,SW,214,5.0,12.0,79,0.00,,---,0.00,VWS V14.00,2013-03-09 19:34:00,
2013-03-09 13:39:00,61.9,55.3,29.74,SSW,195,13.0,15.0,79,0.00,,---,0.00,VWS V14.00,2013-03-09 19:39:00,
2013-03-09 13:44:00,61.8,55.6,29.72,SSE,148,11.0,14.0,80,0.00,,---,0.00,VWS V14.00,2013-03-09 19:44:00,
2013-03-09 13:50:00,61.5,55.6,29.72,SSE,155,12.0,13.0,81,0.00,,---,0.00,VWS V14.00,2013-03-09 19:50:00,
2013-03-09 13:55:00,61.3,55.4,29.72,South,172,1.0,12.0,81,0.00,,---,0.00,VWS V14.00,2013-03-09 19:55:00,
2013-03-09 14:01:00,61.3,55.4,29.72,SE,137,2.0,17.0,81,0.00,,---,0.00,VWS V14.00,2013-03-09 20:01:00,
2013-03-09 14:07:00,61.3,55.4,29.72,SE,136,13.0,18.0,81,0.00,,---,0.00,VWS V14.00,2013-03-09 20:07:00,
2013-03-09 14:12:00,61.3,55.8,29.72,SSE,165,1.0,3.0,82,0.00,,---,0.00,VWS V14.00,2013-03-09 20:12:00,
2013-03-09 14:17:00,61.3,55.8,29.72,SE,127,14.0,22.0,82,0.00,,---,0.00,VWS V14.00,2013-03-09 20:17:00,
2013-03-09 14:23:00,61.2,55.7,29.72,ESE,113,0.0,14.0,82,0.00,,---,0.00,VWS V14.00,2013-03-09 20:23:00,
2013-03-09 14:29:00,61.2,55.7,29.73,ESE,122,1.0,14.0,82,0.00,,---,0.00,VWS V14.00,2013-03-09 20:29:00,
2013-03-09 14:35:00,61.1,55.6,29.73,SSE,163,1.0,10.0,82,0.00,,---,0.00,VWS V14.00,2013-03-09 20:35:00,
2013-03-09 14:40:00,61.2,55.7,29.71,SE,130,11.0,13.0,82,0.00,,---,0.00,VWS V14.00,2013-03-09 20:40:00,
2013-03-09 14:46:00,61.2,55.7,29.71,SSE,165,5.0,15.0,82,0.00,,---,0.00,VWS V14.00,2013-03-09 20:46:00,
2013-03-09 14:51:00,61.2,55.7,29.71,SE,141,6.0,7.0,82,0.00,,---,0.00,VWS V14.00,2013-03-09 20:51:00,
2013-03-09 14:57:00,61.2,55.7,29.71,SSE,154,10.0,14.0,82,0.00,,---,0.00,VWS V14.00,2013-03-09 20:57:00,
2013-03-09 15:03:00,61.2,55.7,29.71,SE,139,14.0,17.0,82,0.00,,---,0.00,VWS V14.00,2013-03-09 21:03:00,
2013-03-09 15:08:00,61.2,55.7,29.71,SE,127,1.0,15.0,82,0.00,,---,0.00,VWS V14.00,2013-03-09 21:08:00,
2013-03-09 15:14:00,61.2,55.7,29.70,South,174,4.0,12.0,82,0.00,,---,0.00,VWS V14.00,2013-03-09 21:14:00,
2013-03-09 15:19:00,61.2,56.0,29.70,SE,129,9.0,11.0,83,0.00,,---,0.00,VWS V14.00,2013-03-09 21:19:00,
2013-03-09 15:25:00,61.2,56.0,29.70,South,186,3.0,12.0,83,0.00,,---,0.00,VWS V14.00,2013-03-09 21:25:00,
2013-03-09 15:30:00,61.1,55.9,29.70,SE,126,3.0,15.0,83,0.00,,---,0.00,VWS V14.00,2013-03-09 21:30:00,
2013-03-09 15:36:00,61.0,56.1,29.70,SE,128,14.0,18.0,84,0.00,,---,0.00,VWS V14.00,2013-03-09 21:36:00,
2013-03-09 15:41:00,60.9,56.4,29.70,South,171,1.0,13.0,85,0.00,,---,0.00,VWS V14.00,2013-03-09 21:41:00,
2013-03-09 15:47:00,60.8,56.3,29.70,SSE,149,6.0,20.0,85,0.00,,---,0.00,VWS V14.00,2013-03-09 21:47:00,
2013-03-09 15:52:00,60.7,56.5,29.70,SE,132,5.0,12.0,86,0.00,,---,0.00,VWS V14.00,2013-03-09 21:52:00,
2013-03-09 15:57:00,60.6,56.4,29.69,South,188,6.0,8.0,86,0.00,,---,0.00,VWS V14.00,2013-03-09 21:57:00,
2013-03-09 16:02:00,60.6,56.7,29.69,SE,134,13.0,16.0,87,0.00,,---,0.00,VWS V14.00,2013-03-09 22:02:00,
2013-03-09 16:07:00,60.4,56.5,29.69,SE,136,3.0,19.0,87,0.00,,---,0.00,VWS V14.00,2013-03-09 22:07:00,
2013-03-09 16:12:00,60.5,56.6,29.69,SE,131,2.0,12.0,87,0.00,,---,0.00,VWS V14.00,2013-03-09 22:12:00,
2013-03-09 16:17:00,60.6,56.7,29.69,SE,136,6.0,15.0,87,0.00,,---,0.00,VWS V14.00,2013-03-09 22:17:00,
2013-03-09 16:23:00,60.7,56.8,29.69,SE,129,15.0,15.0,87,0.00,,---,0.00,VWS V14.00,2013-03-09 22:23:00,
2013-03-09 16:29:00,60.8,56.9,29.68,SE,129,4.0,4.0,87,0.00,,---,0.00,VWS V14.00,2013-03-09 22:29:00,
2013-03-09 16:34:00,60.9,57.0,29.68,SE,127,4.0,13.0,87,0.00,,---,0.00,VWS V14.00,2013-03-09 22:34:00,
2013-03-09 16:39:00,61.0,56.8,29.68,ESE,119,0.0,5.0,86,0.00,,---,0.00,VWS V14.00,2013-03-09 22:39:00,
2013-03-09 16:44:00,61.1,56.9,29.67,ESE,121,14.0,18.0,86,0.00,,---,0.00,VWS V14.00,2013-03-09 22:44:00,
2013-03-09 16:50:00,61.2,57.0,29.67,SE,125,3.0,12.0,86,0.00,,---,0.00,VWS V14.00,2013-03-09 22:50:00,
2013-03-09 16:55:00,61.2,57.0,29.67,SE,131,0.0,13.0,86,0.00,,---,0.00,VWS V14.00,2013-03-09 22:55:00,
2013-03-09 17:01:00,61.4,57.2,29.67,SE,139,5.0,5.0,86,0.00,,---,0.00,VWS V14.00,2013-03-09 23:01:00,
2013-03-09 17:07:00,61.4,57.2,29.67,ESE,117,7.0,14.0,86,0.00,,---,0.00,VWS V14.00,2013-03-09 23:07:00,
2013-03-09 17:12:00,61.5,57.3,29.68,SSE,148,7.0,11.0,86,0.00,,---,0.00,VWS V14.00,2013-03-09 23:12:00,
2013-03-09 17:17:00,61.5,57.3,29.68,SSE,155,0.0,7.0,86,0.00,,---,0.00,VWS V14.00,2013-03-09 23:17:00,
2013-03-09 17:23:00,61.4,57.2,29.68,SE,127,3.0,12.0,86,0.00,,---,0.00,VWS V14.00,2013-03-09 23:23:00,
2013-03-09 17:29:00,61.4,57.5,29.67,SE,125,0.0,3.0,87,0.00,,---,0.00,VWS V14.00,2013-03-09 23:29:00,
2013-03-09 17:34:00,61.2,57.3,29.67,SE,127,3.0,15.0,87,0.00,,---,0.00,VWS V14.00,2013-03-09 23:34:00,
2013-03-09 17:40:00,61.1,57.5,29.66,South,179,11.0,14.0,88,0.00,,---,0.00,VWS V14.00,2013-03-09 23:40:00,
2013-03-09 17:45:00,60.9,57.3,29.66,SSW,196,3.0,17.0,88,0.00,,---,0.00,VWS V14.00,2013-03-09 23:45:00,
2013-03-09 17:50:00,60.8,57.2,29.66,SE,141,5.0,12.0,88,0.00,,---,0.00,VWS V14.00,2013-03-09 23:50:00,
2013-03-09 17:55:00,60.6,57.3,29.66,SE,141,11.0,13.0,89,0.00,,---,0.00,VWS V14.00,2013-03-09 23:55:00,
2013-03-09 18:00:00,60.5,57.2,29.66,SE,130,0.0,11.0,89,0.00,,---,0.00,VWS V14.00,2013-03-10 00:00:00,
2013-03-09 18:05:00,60.5,57.6,29.66,SE,134,6.0,12.0,90,0.01,,---,0.01,VWS V14.00,2013-03-10 00:05:00,
2013-03-09 18:10:00,60.4,57.5,29.65,SE,129,1.0,6.0,90,0.01,,---,0.01,VWS V14.00,2013-03-10 00:10:00,
2013-03-09 18:16:00,60.4,57.5,29.65,ESE,120,7.0,13.0,90,0.02,,---,0.02,VWS V14.00,2013-03-10 00:16:00,
2013-03-09 18:21:00,60.4,57.5,29.65,South,174,2.0,10.0,90,0.02,,---,0.02,VWS V14.00,2013-03-10 00:21:00,
2013-03-09 18:26:00,60.3,57.7,29.66,SE,139,10.0,10.0,91,0.04,,---,0.04,VWS V14.00,2013-03-10 00:26:00,
2013-03-09 18:31:00,60.1,57.5,29.66,SE,134,0.0,14.0,91,0.05,,---,0.05,VWS V14.00,2013-03-10 00:31:00,
2013-03-09 18:37:00,60.0,57.7,29.66,South,186,0.0,9.0,92,0.06,,---,0.06,VWS V14.00,2013-03-10 00:37:00,
2013-03-09 18:42:00,59.9,57.6,29.67,SW,224,0.0,0.0,92,0.12,,---,0.12,VWS V14.00,2013-03-10 00:42:00,
2013-03-09 18:47:00,59.6,57.6,29.67,SSW,199,3.0,9.0,93,0.18,,---,0.18,VWS V14.00,2013-03-10 00:47:00,
2013-03-09 18:52:00,59.3,57.6,29.67,South,188,0.0,6.0,94,0.28,,---,0.28,VWS V14.00,2013-03-10 00:52:00,
2013-03-09 18:57:00,59.1,57.4,29.67,SE,143,0.0,0.0,94,0.32,,---,0.32,VWS V14.00,2013-03-10 00:57:00,
2013-03-09 19:02:00,59.1,57.4,29.67,West,273,9.0,9.0,94,0.33,,---,0.33,VWS V14.00,2013-03-10 01:02:00,
2013-03-09 19:07:00,59.1,57.7,29.67,WSW,243,0.0,0.0,95,0.32,,---,0.33,VWS V14.00,2013-03-10 01:07:00,
2013-03-09 19:12:00,59.1,57.7,29.68,SSW,207,0.0,0.0,95,0.32,,---,0.33,VWS V14.00,2013-03-10 01:12:00,
2013-03-09 19:17:00,59.1,57.7,29.68,South,184,2.0,4.0,95,0.32,,---,0.34,VWS V14.00,2013-03-10 01:17:00,
2013-03-09 19:23:00,59.1,57.7,29.68,South,176,0.0,4.0,95,0.31,,---,0.34,VWS V14.00,2013-03-10 01:23:00,
2013-03-09 19:28:00,59.0,57.6,29.66,South,176,0.0,0.0,95,0.30,,---,0.34,VWS V14.00,2013-03-10 01:28:00,
2013-03-09 19:33:00,59.0,57.6,29.66,South,176,0.0,0.0,95,0.29,,---,0.34,VWS V14.00,2013-03-10 01:33:00,
2013-03-09 19:38:00,59.0,57.6,29.66,South,176,0.0,0.0,95,0.29,,---,0.35,VWS V14.00,2013-03-10 01:38:00,
2013-03-09 19:43:00,58.9,57.5,29.67,South,176,0.0,0.0,95,0.23,,---,0.35,VWS V14.00,2013-03-10 01:43:00,
2013-03-09 19:48:00,58.9,57.5,29.67,South,176,0.0,0.0,95,0.18,,---,0.36,VWS V14.00,2013-03-10 01:48:00,
2013-03-09 19:53:00,58.9,57.5,29.67,SE,146,3.0,4.0,95,0.09,,---,0.37,VWS V14.00,2013-03-10 01:53:00,
2013-03-09 19:58:00,58.9,57.8,29.67,South,171,0.0,4.0,96,0.06,,---,0.38,VWS V14.00,2013-03-10 01:58:00,
2013-03-09 20:03:00,58.9,57.8,29.67,South,171,0.0,0.0,96,0.07,,---,0.40,VWS V14.00,2013-03-10 02:03:00,
2013-03-09 20:09:00,58.9,57.8,29.67,South,173,0.0,0.0,96,0.08,,---,0.41,VWS V14.00,2013-03-10 02:09:00,
2013-03-09 20:14:00,58.8,57.7,29.68,South,173,0.0,0.0,96,0.08,,---,0.41,VWS V14.00,2013-03-10 02:14:00,
2013-03-09 20:19:00,58.7,57.6,29.68,South,173,0.0,0.0,96,0.07,,---,0.41,VWS V14.00,2013-03-10 02:19:00,
2013-03-09 20:25:00,58.6,57.5,29.69,South,181,0.0,5.0,96,0.07,,---,0.41,VWS V14.00,2013-03-10 02:25:00,
2013-03-09 20:30:00,58.5,57.1,29.69,South,191,0.0,3.0,95,0.08,,---,0.42,VWS V14.00,2013-03-10 02:30:00,
2013-03-09 20:35:00,58.5,57.1,29.69,South,180,0.0,0.0,95,0.08,,---,0.42,VWS V14.00,2013-03-10 02:35:00,
2013-03-09 20:41:00,58.4,57.0,29.70,South,175,0.0,0.0,95,0.08,,---,0.43,VWS V14.00,2013-03-10 02:41:00,
2013-03-09 20:46:00,58.3,56.9,29.70,South,175,0.0,0.0,95,0.07,,---,0.43,VWS V14.00,2013-03-10 02:46:00,
2013-03-09 20:51:00,58.2,56.8,29.70,South,174,0.0,0.0,95,0.07,,---,0.44,VWS V14.00,2013-03-10 02:51:00,
2013-03-09 20:57:00,58.0,56.6,29.67,South,174,0.0,0.0,95,0.06,,---,0.44,VWS V14.00,2013-03-10 02:57:00,
2013-03-09 21:02:00,57.9,56.5,29.67,South,174,0.0,0.0,95,0.05,,---,0.44,VWS V14.00,2013-03-10 03:02:00,
2013-03-09 21:07:00,57.7,56.3,29.67,South,174,0.0,0.0,95,0.04,,---,0.44,VWS V14.00,2013-03-10 03:07:00,
2013-03-09 21:12:00,57.6,56.5,29.67,South,173,0.0,0.0,96,0.03,,---,0.44,VWS V14.00,2013-03-10 03:12:00,
2013-03-09 21:18:00,57.6,56.5,29.67,ESE,110,5.0,5.0,96,0.03,,---,0.44,VWS V14.00,2013-03-10 03:18:00,
2013-03-09 21:23:00,57.6,56.5,29.67,SE,142,0.0,4.0,96,0.03,,---,0.44,VWS V14.00,2013-03-10 03:23:00,
2013-03-09 21:28:00,57.6,56.5,29.67,SE,140,0.0,4.0,96,0.03,,---,0.44,VWS V14.00,2013-03-10 03:28:00,
2013-03-09 21:33:00,57.6,56.5,29.67,SE,139,0.0,2.0,96,0.02,,---,0.44,VWS V14.00,2013-03-10 03:33:00,
2013-03-09 21:38:00,57.5,56.4,29.67,SE,139,0.0,0.0,96,0.01,,---,0.44,VWS V14.00,2013-03-10 03:38:00,
2013-03-09 21:44:00,57.5,56.4,29.67,SE,139,0.0,0.0,96,0.01,,---,0.44,VWS V14.00,2013-03-10 03:44:00,
2013-03-09 21:49:00,57.3,56.2,29.67,SE,139,0.0,0.0,96,0.01,,---,0.44,VWS V14.00,2013-03-10 03:49:00,
2013-03-09 21:54:00,57.1,56.0,29.67,SE,139,0.0,0.0,96,0.00,,---,0.44,VWS V14.00,2013-03-10 03:54:00,
2013-03-09 22:00:00,57.0,55.9,29.67,SE,139,0.0,0.0,96,0.00,,---,0.44,VWS V14.00,2013-03-10 04:00:00,
2013-03-09 22:05:00,56.9,55.8,29.67,SE,138,0.0,0.0,96,0.00,,---,0.44,VWS V14.00,2013-03-10 04:05:00,
2013-03-09 22:10:00,56.7,55.6,29.67,SE,138,0.0,0.0,96,0.00,,---,0.44,VWS V14.00,2013-03-10 04:10:00,
2013-03-09 22:15:00,56.6,55.5,29.67,SE,138,0.0,0.0,96,0.00,,---,0.44,VWS V14.00,2013-03-10 04:15:00,
2013-03-09 22:20:00,56.5,55.4,29.67,SE,137,1.0,2.0,96,0.00,,---,0.44,VWS V14.00,2013-03-10 04:20:00,
2013-03-09 22:26:00,56.3,55.2,29.68,SE,132,0.0,6.0,96,0.00,,---,0.44,VWS V14.00,2013-03-10 04:26:00,
2013-03-09 22:31:00,56.3,55.2,29.68,SSE,166,2.0,4.0,96,0.00,,---,0.44,VWS V14.00,2013-03-10 04:31:00,
2013-03-09 22:37:00,56.1,55.0,29.68,ESE,120,0.0,0.0,96,0.00,,---,0.44,VWS V14.00,2013-03-10 04:37:00,
2013-03-09 22:42:00,56.0,54.9,29.68,SE,143,0.0,5.0,96,0.00,,---,0.44,VWS V14.00,2013-03-10 04:42:00,
2013-03-09 22:47:00,55.8,54.7,29.68,SE,143,0.0,0.0,96,0.00,,---,0.44,VWS V14.00,2013-03-10 04:47:00,
2013-03-09 22:50:00,55.5,54.4,29.65,SE,141,0.0,0.0,96,0.00,,---,0.44,VWS V14.00,2013-03-10 04:50:00,
2013-03-09 22:51:00,55.5,54.4,29.65,SE,141,0.0,0.0,96,0.00,,---,0.44,VWS V14.00,2013-03-10 04:51:00,
2013-03-09 22:52:00,55.5,54.4,29.65,SE,140,0.0,0.0,96,0.00,,---,0.44,VWS V14.00,2013-03-10 04:52:00,
2013-03-09 22:53:00,55.6,54.5,29.68,SE,141,0.0,0.0,96,0.00,,---,0.44,VWS V14.00,2013-03-10 04:53:00,
2013-03-09 22:54:00,55.4,54.3,29.65,SE,139,0.0,0.0,96,0.00,,---,0.44,VWS V14.00,2013-03-10 04:54:00,
2013-03-09 22:55:00,55.4,54.3,29.65,SE,138,0.0,0.0,96,0.00,,---,0.44,VWS V14.00,2013-03-10 04:55:00,
2013-03-09 22:56:00,55.4,54.3,29.65,SE,138,0.0,3.0,96,0.00,,---,0.44,VWS V14.00,2013-03-10 04:56:00,
2013-03-09 22:57:00,55.4,54.3,29.65,SE,138,0.0,0.0,96,0.00,,---,0.44,VWS V14.00,2013-03-10 04:57:00,
2013-03-09 22:58:00,55.4,54.3,29.65,ESE,120,3.0,3.0,96,0.00,,---,0.44,VWS V14.00,2013-03-10 04:58:00,
2013-03-09 22:59:00,55.5,54.4,29.65,SE,141,0.0,0.0,96,0.00,,---,0.44,VWS V14.00,2013-03-10 04:59:00,
2013-03-09 23:00:00,55.4,54.3,29.68,SE,141,1.0,4.0,96,0.00,,---,0.44,VWS V14.00,2013-03-10 05:00:00,
2013-03-09 23:01:00,55.3,54.2,29.68,SE,136,3.0,5.0,96,0.00,,---,0.44,VWS V14.00,2013-03-10 05:01:00,
2013-03-09 23:02:00,55.3,54.2,29.68,SE,136,0.0,3.0,96,0.00,,---,0.44,VWS V14.00,2013-03-10 05:02:00,
2013-03-09 23:03:00,55.3,54.2,29.68,SE,136,0.0,0.0,96,0.00,,---,0.44,VWS V14.00,2013-03-10 05:03:00,
2013-03-09 23:04:00,55.3,54.2,29.68,SSE,165,0.0,0.0,96,0.00,,---,0.44,VWS V14.00,2013-03-10 05:04:00,
2013-03-09 23:05:00,55.3,54.2,29.68,SSE,159,3.0,4.0,96,0.00,,---,0.44,VWS V14.00,2013-03-10 05:05:00,
2013-03-09 23:06:00,55.3,54.2,29.68,South,176,2.0,4.0,96,0.00,,---,0.44,VWS V14.00,2013-03-10 05:06:00,
2013-03-09 23:07:00,55.4,54.3,29.68,SSW,192,5.0,6.0,96,0.00,,---,0.44,VWS V14.00,2013-03-10 05:07:00,
2013-03-09 23:08:00,55.4,54.3,29.68,South,179,4.0,5.0,96,0.00,,---,0.44,VWS V14.00,2013-03-10 05:08:00,
2013-03-09 23:09:00,55.4,54.3,29.68,South,172,2.0,4.0,96,0.00,,---,0.44,VWS V14.00,2013-03-10 05:09:00,
2013-03-09 23:10:00,55.4,54.3,29.68,SSE,165,3.0,7.0,96,0.00,,---,0.44,VWS V14.00,2013-03-10 05:10:00,
2013-03-09 23:11:00,55.4,54.3,29.68,SE,137,3.0,6.0,96,0.00,,---,0.44,VWS V14.00,2013-03-10 05:11:00,
2013-03-09 23:12:00,55.4,54.3,29.68,SE,131,5.0,6.0,96,0.00,,---,0.44,VWS V14.00,2013-03-10 05:12:00,
2013-03-09 23:13:00,55.4,54.3,29.68,ESE,120,6.0,7.0,96,0.00,,---,0.44,VWS V14.00,2013-03-10 05:13:00,
2013-03-09 23:14:00,55.5,54.4,29.68,SSE,147,2.0,9.0,96,0.00,,---,0.44,VWS V14.00,2013-03-10 05:14:00,
2013-03-09 23:15:00,55.5,54.4,29.68,SSE,147,0.0,2.0,96,0.00,,---,0.44,VWS V14.00,2013-03-10 05:15:00,
2013-03-09 23:16:00,55.5,54.4,29.68,SE,146,10.0,10.0,96,0.00,,---,0.44,VWS V14.00,2013-03-10 05:16:00,
2013-03-09 23:17:00,55.5,54.4,29.68,SE,129,4.0,10.0,96,0.00,,---,0.44,VWS V14.00,2013-03-10 05:17:00,
2013-03-09 23:18:00,55.5,54.4,29.68,SE,129,0.0,4.0,96,0.00,,---,0.44,VWS V14.00,2013-03-10 05:18:00,
2013-03-09 23:19:00,55.4,54.3,29.68,SE,129,0.0,0.0,96,0.00,,---,0.44,VWS V14.00,2013-03-10 05:19:00,
2013-03-09 23:20:00,55.4,54.3,29.68,SE,128,0.0,1.0,96,0.00,,---,0.44,VWS V14.00,2013-03-10 05:20:00,
2013-03-09 23:21:00,55.4,54.3,29.68,SE,127,0.0,0.0,96,0.00,,---,0.44,VWS V14.00,2013-03-10 05:21:00,
2013-03-09 23:22:00,55.4,54.3,29.68,SE,127,1.0,4.0,96,0.00,,---,0.44,VWS V14.00,2013-03-10 05:22:00,
2013-03-09 23:23:00,55.4,54.3,29.68,SSE,154,2.0,3.0,96,0.00,,---,0.44,VWS V14.00,2013-03-10 05:23:00,
2013-03-09 23:24:00,55.4,54.3,29.68,SSE,151,1.0,2.0,96,0.00,,---,0.44,VWS V14.00,2013-03-10 05:24:00,
2013-03-09 23:25:00,55.4,54.3,29.68,SSE,151,0.0,1.0,96,0.00,,---,0.44,VWS V14.00,2013-03-10 05:25:00,
2013-03-09 23:26:00,55.4,54.3,29.68,SSE,160,0.0,0.0,96,0.00,,---,0.44,VWS V14.00,2013-03-10 05:26:00,
2013-03-09 23:27:00,55.4,54.3,29.68,SSE,158,5.0,6.0,96,0.00,,---,0.44,VWS V14.00,2013-03-10 05:27:00,
2013-03-09 23:28:00,55.4,54.3,29.68,SSE,158,0.0,5.0,96,0.00,,---,0.44,VWS V14.00,2013-03-10 05:28:00,
2013-03-09 23:29:00,55.3,54.2,29.68,SSE,159,0.0,0.0,96,0.00,,---,0.44,VWS V14.00,2013-03-10 05:29:00,
2013-03-09 23:30:00,55.3,54.2,29.67,SSE,158,1.0,1.0,96,0.00,,---,0.44,VWS V14.00,2013-03-10 05:30:00,
2013-03-09 23:31:00,55.3,54.2,29.67,SSE,158,0.0,2.0,96,0.00,,---,0.44,VWS V14.00,2013-03-10 05:31:00,
2013-03-09 23:32:00,55.3,54.2,29.67,SSE,159,0.0,0.0,96,0.00,,---,0.44,VWS V14.00,2013-03-10 05:32:00,
2013-03-09 23:33:00,55.3,54.2,29.67,SSE,159,2.0,2.0,96,0.00,,---,0.44,VWS V14.00,2013-03-10 05:33:00,
2013-03-09 23:34:00,55.3,54.2,29.67,SSE,158,0.0,2.0,96,0.00,,---,0.44,VWS V14.00,2013-03-10 05:34:00,
2013-03-09 23:35:00,55.3,54.2,29.67,SE,127,3.0,7.0,96,0.00,,---,0.44,VWS V14.00,2013-03-10 05:35:00,
2013-03-09 23:36:00,55.3,54.2,29.67,SE,127,2.0,4.0,96,0.00,,---,0.44,VWS V14.00,2013-03-10 05:36:00,
2013-03-09 23:37:00,55.3,54.2,29.67,SE,127,0.0,3.0,96,0.00,,---,0.44,VWS V14.00,2013-03-10 05:37:00,
2013-03-09 23:38:00,55.3,54.2,29.67,SE,127,0.0,0.0,96,0.00,,---,0.44,VWS V14.00,2013-03-10 05:38:00,
2013-03-09 23:39:00,55.3,54.2,29.67,SE,127,0.0,0.0,96,0.00,,---,0.44,VWS V14.00,2013-03-10 05:39:00,
2013-03-09 23:40:00,55.3,54.2,29.67,SE,127,0.0,0.0,96,0.00,,---,0.44,VWS V14.00,2013-03-10 05:40:00,
2013-03-09 23:41:00,55.3,54.2,29.67,SE,127,0.0,0.0,96,0.00,,---,0.44,VWS V14.00,2013-03-10 05:41:00,
2013-03-09 23:42:00,55.2,54.1,29.67,SE,127,0.0,0.0,96,0.00,,---,0.44,VWS V14.00,2013-03-10 05:42:00,
2013-03-09 23:43:00,55.2,54.1,29.67,SE,127,1.0,1.0,96,0.00,,---,0.44,VWS V14.00,2013-03-10 05:43:00,
2013-03-09 23:44:00,55.2,54.1,29.67,SE,127,1.0,7.0,96,0.00,,---,0.44,VWS V14.00,2013-03-10 05:44:00,
2013-03-09 23:45:00,55.2,54.1,29.66,SE,134,0.0,6.0,96,0.00,,---,0.44,VWS V14.00,2013-03-10 05:45:00,
2013-03-09 23:46:00,55.2,53.8,29.66,SE,134,0.0,0.0,95,0.00,,---,0.44,VWS V14.00,2013-03-10 05:46:00,
2013-03-09 23:47:00,55.2,53.8,29.66,SE,134,0.0,0.0,95,0.00,,---,0.44,VWS V14.00,2013-03-10 05:47:00,
2013-03-09 23:49:00,55.2,53.8,29.66,SSE,162,0.0,0.0,95,0.00,,---,0.44,VWS V14.00,2013-03-10 05:49:00,
2013-03-09 23:51:00,55.2,53.8,29.66,South,185,3.0,4.0,95,0.00,,---,0.44,VWS V14.00,2013-03-10 05:51:00,
2013-03-09 23:54:00,55.2,53.8,29.66,South,185,0.0,3.0,95,0.00,,---,0.44,VWS V14.00,2013-03-10 05:54:00,
2013-03-09 23:55:00,55.2,53.8,29.66,South,184,0.0,0.0,95,0.00,,---,0.44,VWS V14.00,2013-03-10 05:55:00,
2013-03-09 23:56:00,55.2,53.8,29.66,South,184,0.0,0.0,95,0.00,,---,0.44,VWS V14.00,2013-03-10 05:56:00,
2013-03-09 23:57:00,55.1,53.7,29.66,South,184,0.0,0.0,95,0.00,,---,0.44,VWS V14.00,2013-03-10 05:57:00,
2013-03-09 23:58:00,55.2,53.8,29.66,SSE,162,0.0,0.0,95,0.00,,---,0.44,VWS V14.00,2013-03-10 05:58:00,